SL-24 PLAT, 40049

Orbit data source: Space-Track

SL-24 PLAT, 40049 is space debris in SSO originally from a launch on Thu, 19 Jun 2014 UTC launched from the Orenburg, Russia (OREN). Debris objects in space refer to the collection of defunct objects orbiting the Earth. Examples of debris include non-operational satellites, rocket bodies, and fragments generated from explosions, collisions, or faulty payload assembly.

Loading next visibility...
Identifier
40049, 2014-033AR
Orbit
SSO
Country
Flag of CISCIS
Related business
Manufacturer
Yuzhnoe
Mission
Spacecraft
Bus & Motor
Unknown
Mass
Unknown
Launch date (UTC)
2014-06-19 (12 years ago)
Launch vehicle
Unknown
Launch site
Orenburg, Russia (OREN)
Object type
Payload
Rocket body
Debris
Shape & HBR
Unknown shape, 2.4 m
Radar Cross Section
Large (>1 m²)

Expand to show TLE details & history
Last TLE update: 2 days ago

TLE from 2 days ago
0 SL-24 PLAT
1 40049U 14033AR  26171.40921115  .00004827  00000-0  29832-3 0  9996
2 40049  98.0993 170.1972 0005073 228.0116 132.0680 15.10373298652708
Epoch: 2026-06-20T09:49Z
TLE epoch observation values (Epoch: 2026-06-20T09:49:15.843Z)
Latitude
-0.00004°
Longitude
114.25694°
Altitude
540.469 km
Speed
7.591 km/s
True Right ascension
11h 20m 47s
True Declination
0° 00' 00"
Sunlit
Object was in daylight at epoch
Visualization orbit readout
Latitude
Unknown
Longitude
Unknown
Altitude
Unknown
Speed
Unknown
Apparent Right ascension
Unknown
Apparent Declination
Unknown
Sunlit
N/A
Visualization observer readout
Local Sidereal Time
21:42:05
Azimuth
Unknown
Elevation
Unknown
Doppler factor
Unknown
Orbital elements
Apogee altitude
535.576 km
Perigee altitude
528.565 km
Semi-major axis
6,910.207 km
Eccentricity
0.00051
Inclination
98.0993°
RAAN
170.1972°
Arg. of periapsis
228.0116°
True anomaly
132.11114°
Mean anomaly
132.068°
Eccentric anomaly
132.08957°
Mean motion
3.77839 °/min
Orbital period
95.28 mins
BSTAR
0.00029832
Loading maneuver chart data...
Computing Atmospheric mass density...
Loading historical data...
Loading historical data...
Loading historical data...
Loading historical data...
Loading historical data...
Loading historical data...
Loading historical data...

Documentation

Showing up to 5 results
|